Overview Statistics Trail Chart Weather Telemetry Raw packets
 

This is the latest recevied weather packets stored in our database for station/object LU4EGV-13. If no packets are shown the sender has not sent any weather packets the latest 10 day(s).

<< 17 18 19 20 21 22 23 >>
Time Temp. Humidity Pressure Rain* Wind** Luminosity Snow
1788415149 15.56° C 67% 1008.2 hPa 0 mm - - -
1788414558 15.56° C 66% 1008.5 hPa 0 mm - - -
1788413937 16.11° C 65% 1008.8 hPa 0 mm - - -
1788413331 16.11° C 64% 1008.5 hPa 0 mm - - -
1788412725 16.11° C 68% 1008 hPa 0 mm - - -
1788412118 16.11° C 69% 1007.5 hPa 0 mm - - -
1788411512 16.11° C 71% 1008.2 hPa 0 mm - - -
1788410906 16.11° C 73% 1008.4 hPa 0 mm - - -
1788410299 16.11° C 73% 1008.9 hPa 0 mm - - -
1788409693 16.11° C 72% 1008.3 hPa 0 mm - - -
1788409099 16.67° C 70% 1007.8 hPa 0 mm - - -
1788408481 16.67° C 70% 1007.7 hPa 0 mm - - -
1788407875 17.22° C 64% 1007.5 hPa 0 mm - - -
1788407269 17.22° C 62% 1006.9 hPa 0 mm - - -
1788406663 17.78° C 62% 1006.9 hPa 0 mm - - -
1788406058 17.78° C 62% 1007 hPa 0 mm - - -
1788405450 18.33° C 64% 1007.2 hPa 0 mm - - -
1788404844 18.33° C 70% 1007.4 hPa 0 mm - - -
1788404240 18.33° C 72% 1007.4 hPa 0 mm - - -
1788403631 18.33° C 74% 1007.1 hPa 0 mm - - -
1788403026 18.89° C 74% 1007.1 hPa 0 mm - - -
1788402420 20° C 69% 1007.3 hPa 0 mm - - -
1788401813 20° C 68% 1007.2 hPa 0 mm - - -
1788401207 20° C 66% 1006.4 hPa 0 mm - - -
1788400601 20° C 65% 1006.1 hPa 0 mm - - -

* Rain latest hour (hover to see other rain measurements)
** Current wind speed in m/s (hover to see current wind gust speed)